Regional Weather Roundup
Issued by NWS

Home | Current Version | Previous Version | Text Only | Print | Product List | Glossary On
Versions: 1 2 3 4 5 6 7 8 9 10 11 12 13 14 15 16 17 18 19 20 21 22 23 24 25 26 27 28 29 30 31 32 33 34 35 36 37 38 39 40 41 42 43 44 45 46 47 48 49 50
000
ASUS42 KKEY 111310
RWRKEY

FLORIDA REGIONAL WEATHER ROUNDUP FOR THE FLORIDA KEYS
NATIONAL WEATHER SERVICE KEY WEST FLORIDA
800 AM EST THU FEB 11 2016

...SOUTH FLORIDA AND THE KEYS...

CITY           SKY/WX    TMP DP  RH WIND       PRES   REMARKS
FORT MYERS     SUNNY     48  44  86 NE7       30.32R WCI  45
SW REGIONAL AP SUNNY     48  43  82 E5        30.32R
NAPLES         SUNNY     45  43  93 CALM      30.32R
MIAMI          CLOUDY    51  42  71 VRB6      30.31R
WEST KENDALL   MOSUNNY   51  44  77 N7        30.31R
HOMESTEAD      CLOUDY    49  44  82 N6        30.30R
MARATHON       SUNNY     55  46  71 N8        30.29R
BOCA CHICA NAS PTSUNNY   57  50  77 N6        30.30R
KEY WEST INTL  CLOUDY    58  52  80 N5        30.31R

...INTERNATIONAL WEATHER...

CITY           SKY/WX    TMP DP  RH WIND       PRES   REMARKS
NASSAU BAHAMAS PTSUNNY   70  37  30 NW3       30.26R
CANCUN MEXICO  MOCLDY    57  55  94 NW6       30.25R
COZUMEL MEXICO MOCLDY    64  59  82 N12       30.23R

ADJACENT COASTAL WATERS...

STATION/POSITION TIME  SKY/WX   TEMP    WIND        PRES    WAVE
                                AIR SEA DIR/SP/G            HT/PER
                 (UTC)          (F)     (DEG/KT/KT) (MB)    (FT/S)
PULASKI SHOAL LI NOT AVBL
SAND KEY         1150            59      40/ 11/ 14 1025.6R
SOMBRERO KEY     NOT AVBL
LONG KEY         1200            55 63   10/  9/ 11 1026.3R
MOLASSES REEF    1200            55 74   10/ 11/ 14 1025.4R
FOWEY ROCKS      NOT AVBL

$$



USA.gov is the U.S. government's official web portal to all federal, state and local government web resources and services.